Stündliche Wetter Celestynow

Heute, 19 Januar, Dienstag

Zeit Temperatur Niederschläge Wind Luftdruck Luftfeuchtigkeit
00:00 -12°C° 0 mm 3 m/S 749 mmHg 92%
01:00 -12°C° 0 mm 3 m/S 749 mmHg 91%
02:00 -10°C° 0.2 mm 3 m/S 748 mmHg 92%
03:00 -9°C° 0.2 mm 3 m/S 748 mmHg 94%
04:00 -9°C° 0.2 mm 4 m/S 747 mmHg 95%
05:00 -7°C° 0.4 mm 3 m/S 747 mmHg 96%
06:00 -6°C° 0.4 mm 3 m/S 747 mmHg 96%
07:00 -5°C° 0.4 mm 3 m/S 747 mmHg 97%
08:00 -4°C° 0.3 mm 3 m/S 747 mmHg 97%
09:00 -2°C° 0.3 mm 3 m/S 747 mmHg 98%
10:00 -1°C° 0.3 mm 3 m/S 747 mmHg 98%
11:00 -1°C° 0.2 mm 3 m/S 746 mmHg 98%
12:00 -1°C° 0.2 mm 3 m/S 746 mmHg 99%
13:00 0°C° 0.2 mm 3 m/S 745 mmHg 99%
14:00 0°C° 0 mm 3 m/S 745 mmHg 99%
15:00 0°C° 0 mm 3 m/S 745 mmHg 98%
16:00 0°C° 0 mm 3 m/S 744 mmHg 97%
17:00 -2°C° 0.1 mm 4 m/S 744 mmHg 97%
18:00 -2°C° 0.1 mm 4 m/S 744 mmHg 97%
19:00 -2°C° 0.1 mm 5 m/S 743 mmHg 97%
20:00 -2°C° 0.1 mm 5 m/S 743 mmHg 97%
21:00 -2°C° 0.1 mm 5 m/S 743 mmHg 96%
22:00 -2°C° 0.1 mm 5 m/S 742 mmHg 96%
23:00 -2°C° 0.1 mm 5 m/S 742 mmHg 96%

Morgen, 20 Januar, Mittwoch

Zeit Temperatur Niederschläge Wind Luftdruck Luftfeuchtigkeit
00:00 -2°C° 0.1 mm 5 m/S 742 mmHg 97%
01:00 -2°C° 0.1 mm 5 m/S 742 mmHg 97%
02:00 -1°C° 0.6 mm 5 m/S 741 mmHg 98%
03:00 -1°C° 0.6 mm 5 m/S 741 mmHg 98%
04:00 -1°C° 0.6 mm 5 m/S 741 mmHg 98%
05:00 -1°C° 0.2 mm 5 m/S 741 mmHg 98%
06:00 0°C° 0.2 mm 5 m/S 741 mmHg 98%
07:00 -1°C° 0.2 mm 6 m/S 741 mmHg 98%
08:00 0°C° 0 mm 5 m/S 741 mmHg 98%
09:00 0°C° 0 mm 5 m/S 742 mmHg 98%
10:00 0°C° 0 mm 5 m/S 742 mmHg 98%
11:00 0°C° 0 mm 5 m/S 742 mmHg 98%
12:00 0°C° 0 mm 5 m/S 742 mmHg 98%
13:00 -1°C° 0 mm 6 m/S 742 mmHg 99%
14:00 -1°C° 0 mm 6 m/S 742 mmHg 95%
15:00 -1°C° 0 mm 6 m/S 741 mmHg 92%
16:00 0°C° 0 mm 5 m/S 741 mmHg 89%
17:00 0°C° 0 mm 5 m/S 741 mmHg 87%
18:00 0°C° 0 mm 5 m/S 741 mmHg 85%
19:00 0°C° 0 mm 5 m/S 741 mmHg 83%
20:00 0°C° 0 mm 5 m/S 741 mmHg 82%
21:00 -1°C° 0 mm 5 m/S 741 mmHg 81%
22:00 -1°C° 0 mm 5 m/S 741 mmHg 80%
23:00 -1°C° 0 mm 5 m/S 741 mmHg 80%

übermorgen, 21 Januar, Donnerstag

Zeit Temperatur Niederschläge Wind Luftdruck Luftfeuchtigkeit
00:00 -1°C° 0 mm 5 m/S 741 mmHg 80%
01:00 -1°C° 0 mm 5 m/S 741 mmHg 80%
02:00 -1°C° 0 mm 5 m/S 741 mmHg 80%
03:00 -1°C° 0 mm 5 m/S 741 mmHg 80%
04:00 -1°C° 0 mm 5 m/S 741 mmHg 80%
05:00 0°C° 0 mm 5 m/S 741 mmHg 82%
06:00 0°C° 0 mm 5 m/S 741 mmHg 84%
07:00 -1°C° 0 mm 6 m/S 741 mmHg 86%
08:00 -1°C° 0 mm 6 m/S 741 mmHg 87%
09:00 -1°C° 0 mm 6 m/S 741 mmHg 88%
10:00 +1°C° 0 mm 6 m/S 740 mmHg 89%
11:00 +1°C° 0 mm 6 m/S 740 mmHg 90%
12:00 +1°C° 0 mm 6 m/S 740 mmHg 90%
13:00 +2°C° 0 mm 5 m/S 740 mmHg 90%
14:00 +1°C° 0 mm 5 m/S 740 mmHg 90%
15:00 +1°C° 0 mm 4 m/S 739 mmHg 90%
16:00 0°C° 0 mm 4 m/S 738 mmHg 90%
17:00 0°C° 0 mm 4 m/S 738 mmHg 89%
18:00 0°C° 0 mm 4 m/S 738 mmHg 88%
19:00 0°C° 0 mm 5 m/S 738 mmHg 87%
20:00 -1°C° 0 mm 5 m/S 738 mmHg 87%
21:00 -1°C° 0 mm 5 m/S 738 mmHg 87%
22:00 -1°C° 0 mm 4 m/S 738 mmHg 87%
23:00 -1°C° 0 mm 5 m/S 737 mmHg 85%

22 Januar, Freitag

Zeit Temperatur Niederschläge Wind Luftdruck Luftfeuchtigkeit
00:00 -1°C° 0 mm 5 m/S 737 mmHg 83%
01:00 -1°C° 0 mm 6 m/S 737 mmHg 81%
02:00 0°C° 0 mm 5 m/S 736 mmHg 84%
03:00 0°C° 0 mm 5 m/S 736 mmHg 86%
04:00 0°C° 0 mm 4 m/S 735 mmHg 88%
05:00 0°C° 0 mm 4 m/S 735 mmHg 88%
06:00 0°C° 0 mm 4 m/S 734 mmHg 88%
07:00 0°C° 0 mm 4 m/S 734 mmHg 88%
08:00 0°C° 0 mm 4 m/S 733 mmHg 88%
09:00 +1°C° 0 mm 5 m/S 733 mmHg 88%
10:00 +1°C° 0 mm 5 m/S 732 mmHg 88%
11:00 +1°C° 0 mm 5 m/S 732 mmHg 89%
12:00 +2°C° 0 mm 5 m/S 732 mmHg 91%
13:00 +2°C° 0 mm 5 m/S 732 mmHg 92%
14:00 +1°C° 0 mm 5 m/S 732 mmHg 90%
15:00 +1°C° 0 mm 5 m/S 732 mmHg 89%
16:00 +1°C° 0 mm 5 m/S 733 mmHg 87%
17:00 +1°C° 0 mm 5 m/S 734 mmHg 88%
18:00 0°C° 0 mm 5 m/S 734 mmHg 88%
19:00 0°C° 0 mm 5 m/S 735 mmHg 89%
20:00 0°C° 0 mm 4 m/S 736 mmHg 89%
21:00 0°C° 0 mm 4 m/S 736 mmHg 90%
22:00 0°C° 0 mm 3 m/S 736 mmHg 91%
23:00 0°C° 0.1 mm 3 m/S 737 mmHg 92%

23 Januar, Samstag

Zeit Temperatur Niederschläge Wind Luftdruck Luftfeuchtigkeit
00:00 0°C° 0.1 mm 3 m/S 737 mmHg 92%
01:00 +1°C° 0.1 mm 2 m/S 738 mmHg 93%
02:00 +1°C° 0 mm 2 m/S 738 mmHg 93%
03:00 +1°C° 0 mm 2 m/S 738 mmHg 93%
04:00 +1°C° 0 mm 2 m/S 738 mmHg 92%
05:00 -1°C° 0 mm 2 m/S 738 mmHg 92%
06:00 -1°C° 0 mm 2 m/S 738 mmHg 91%
07:00 -1°C° 0 mm 2 m/S 739 mmHg 91%
08:00 +1°C° 0 mm 2 m/S 739 mmHg 90%
09:00 +1°C° 0 mm 2 m/S 739 mmHg 90%
10:00 +1°C° 0 mm 2 m/S 739 mmHg 89%
11:00 +2°C° 0 mm 2 m/S 739 mmHg 88%
12:00 +2°C° 0 mm 2 m/S 739 mmHg 88%
13:00 +2°C° 0 mm 2 m/S 739 mmHg 87%
14:00 +2°C° 0 mm 2 m/S 738 mmHg 89%
15:00 +1°C° 0 mm 2 m/S 738 mmHg 90%
16:00 0°C° 0 mm 3 m/S 738 mmHg 92%
17:00 0°C° 0 mm 3 m/S 738 mmHg 92%
18:00 -1°C° 0 mm 3 m/S 738 mmHg 92%
19:00 -1°C° 0 mm 3 m/S 737 mmHg 92%
20:00 -2°C° 0 mm 4 m/S 737 mmHg 91%
21:00 -2°C° 0 mm 4 m/S 737 mmHg 90%
22:00 -2°C° 0 mm 4 m/S 737 mmHg 89%
23:00 -2°C° 0 mm 4 m/S 737 mmHg 90%

24 Januar, Sonntag

Zeit Temperatur Niederschläge Wind Luftdruck Luftfeuchtigkeit
00:00 -2°C° 0 mm 4 m/S 736 mmHg 90%
01:00 -2°C° 0 mm 4 m/S 736 mmHg 91%
02:00 -1°C° 0 mm 3 m/S 735 mmHg 91%
03:00 -1°C° 0 mm 3 m/S 735 mmHg 91%
04:00 -2°C° 0 mm 3 m/S 734 mmHg 91%
05:00 -1°C° 0 mm 3 m/S 734 mmHg 90%
06:00 -2°C° 0 mm 4 m/S 734 mmHg 89%
07:00 -2°C° 0 mm 4 m/S 733 mmHg 88%
08:00 -2°C° 0 mm 4 m/S 733 mmHg 86%
09:00 -1°C° 0 mm 4 m/S 733 mmHg 83%
10:00 -1°C° 0 mm 4 m/S 734 mmHg 80%
11:00 0°C° 0 mm 3 m/S 733 mmHg 80%
12:00 +2°C° 0 mm 2 m/S 733 mmHg 80%
13:00 +2°C° 0 mm 2 m/S 733 mmHg 79%
14:00 +3°C° 0 mm 1 m/S 733 mmHg 82%
15:00 +2°C° 0 mm 1 m/S 733 mmHg 85%
16:00 +2°C° 0 mm 1 m/S 733 mmHg 88%
17:00 +2°C° 0.1 mm 1 m/S 733 mmHg 90%
18:00 -1°C° 0.1 mm 2 m/S 733 mmHg 92%
19:00 -1°C° 0.1 mm 3 m/S 733 mmHg 95%
20:00 -2°C° 0.3 mm 4 m/S 734 mmHg 95%
21:00 -2°C° 0.3 mm 5 m/S 734 mmHg 96%
22:00 -3°C° 0.3 mm 6 m/S 734 mmHg 97%
23:00 -3°C° 0.2 mm 6 m/S 735 mmHg 95%
Mehr zeigen

Wir brauchen deine Erlaubnis

Meteoprog und unser Service Anbieter werden persönliche Daten aufbewahren, so wie Cookies, Geräte Bezeichnung oder ähnliche Technologien von deinem Gerät und Prozess, so wie Persönliche Daten Inhalte und Werbungen, genauso wie social Media und den Verkehr zu analysieren.

  • Aufbewahrung und/oder Zugang zu deiner Geräte Informationen.

    Cookies, Geräte Bezeichnung oder andere Informationen, können aufbewahrt oder Zugang zu deinem Gerät erhalten, für den Grund, der oben angegeben wird.

  • Personalisierte Werbung und Inhalte, Messungen, Einblick in das Publikum und Produkt Entwicklung.

    Werbungen und Inhalte können personalisiert werden, basierend auf ein Profil. Mehr Daten können besser personalisierte Werbungen und Inhalte hinzufügen. Werbung und Inhalte können gezeigt und gemessen werden. Einblicke über das Publikum, welche die Werbung gesehen haben und den Inhalt, können abgeleitet werden. So wie Daten können genutzt werden, um es zu verbessern oder die Benutzer Erfahrung zu verbessern das System und die Software.

Wenn du “Ich stimme zu” klickst, erlaubst du uns, die Cookies zu benutzen die Geräte Bezeichnung, den Web oder ähnliche Technologien zu benutzen. Deine Settings, können in deinem Gerät bei deinem Browser geändert werden.

Für den bestimmten Zweck, berechtigten Interessen beruhen darauf, mehr als auf den Inhalt. Du kannst mehr darüber in unseren Privaten und Cookie Politik lesen.